Вернуться в каталог

SL-8 R/B

АктивенPO
NORAD 10777·ROCKET BODY·🇷🇺 Russia

Запущен Mar 31, 1978 с Plesetsk Cosmodrome

Loading…

Ближайшие Пролёты (ближайшие 24 часа)

TLE

СвежийSource: Space-Track

Эпоха: Sep 14, 2026, 08:37 UTC

1 10777U 78034B   26257.35930280  .00000142  00000-0  12632-3 0  9990
2 10777  82.9393 238.9085 0027522  99.2309  63.7654 13.77760895435177

Отслеживайте SL-8 R/B в реальном времени с AllMySat

Download on the App Store